This is the latest recevied weather packets stored in our database for station/object KC8JWT. If no packets are shown the sender has not sent any weather packets the latest 10 day(s).
| Time | Temp. | Humidity | Pressure | Rain* | Wind** | Luminosity | Snow |
|---|---|---|---|---|---|---|---|
| 1778119968 | 13.33° C | 58% | 1013.5 hPa | 0 mm | - | 0 W/m² | - |
| 1778119666 | 13.33° C | 58% | 1013.5 hPa | 0 mm | - | 0 W/m² | - |
| 1778119363 | 13.33° C | 58% | 1013.4 hPa | 0 mm | - | 0 W/m² | - |
| 1778119060 | 13.33° C | 58% | 1013.6 hPa | 0 mm | - | 0 W/m² | - |
| 1778118758 | 13.33° C | 58% | 1013.2 hPa | 0 mm | - | 0 W/m² | - |
| 1778118454 | 13.33° C | 57% | 1013.2 hPa | 0 mm | - | 0 W/m² | - |
| 1778118151 | 13.33° C | 57% | 1013.3 hPa | 0 mm | - | 0 W/m² | - |
| 1778117847 | 13.89° C | 58% | 1013.3 hPa | 0 mm | - | 0 W/m² | - |
| 1778117545 | 13.89° C | 59% | 1013.2 hPa | 0 mm | - | 0 W/m² | - |
| 1778117242 | 13.89° C | 60% | 1013.3 hPa | 0 mm | - | 0 W/m² | - |
| 1778116937 | 13.89° C | 59% | 1013 hPa | 0 mm | - | 0 W/m² | - |
| 1778116635 | 14.44° C | 59% | 1013 hPa | 0 mm | - | 0 W/m² | - |
| 1778116331 | 14.44° C | 59% | 1012.9 hPa | 0 mm | - | 0 W/m² | - |
| 1778116031 | 14.44° C | 59% | 1012.6 hPa | 0 mm | - | 0 W/m² | - |
| 1778115727 | 14.44° C | 59% | 1012.5 hPa | 0 mm | - | 0 W/m² | - |
| 1778115425 | 14.44° C | 60% | 1012.4 hPa | 0 mm | - | 0 W/m² | - |
| 1778115120 | 14.44° C | 65% | 1012.4 hPa | 0 mm | - | 0 W/m² | - |
| 1778114817 | 14.44° C | 63% | 1012.4 hPa | 0 mm | - | 0 W/m² | - |
| 1778114515 | 14.44° C | 59% | 1012.2 hPa | 0 mm | - | 0 W/m² | - |
| 1778114211 | 14.44° C | 61% | 1012.6 hPa | 0 mm | - | 0 W/m² | - |
| 1778113912 | 14.44° C | 70% | 1012.3 hPa | 0 mm | - | 0 W/m² | - |
| 1778113608 | 14.44° C | 68% | 1012.2 hPa | 0 mm | - | 1 W/m² | - |
| 1778113304 | 14.44° C | 68% | 1012.1 hPa | 0 mm | - | 2 W/m² | - |
| 1778113001 | 14.44° C | 69% | 1012.3 hPa | 0 mm | - | 3 W/m² | - |
| 1778112699 | 14.44° C | 72% | 1011.8 hPa | 0 mm | - | 4 W/m² | - |
* Rain latest hour (hover to see other rain measurements)
** Current wind speed in m/s (hover to see current wind gust speed)